{"data":{"norad_id":52482,"epoch":"2026-09-19T12:21:57.619872Z","epoch_age_seconds":148301,"freshness":"FRESH","line1":"1 52482U 22049AH  26262.51525023  .00001631  00000+0  60903-4 0  9991","line2":"2 52482  53.1599 248.4327 0001259  85.0876 275.0270 15.33560587241795","mean_motion":15.33560587,"eccentricity":0.0001259,"inclination_deg":53.1599,"raan_deg":248.4327,"arg_perigee_deg":85.0876,"mean_anomaly_deg":275.027,"bstar":6.0903e-5,"rev_number":24179,"period_min":93.899126790743,"perigee_km":464.33771445032,"apogee_km":466.06086652827,"semimajor_km":6843.3362904893,"source":"CELESTRAK","updated_at":"2026-09-20T09:00:40.053499Z"}}